Regional Weather Roundup
Issued by NWS Mobile, AL

Home | Current Version | Previous Version | Text Only | Print | Product List | Glossary On
Versions: 1 2 3 4 5 6 7 8 9 10 11 12 13 14 15 16 17 18 19 20 21 22 23 24 25 26 27 28 29 30 31 32 33 34 35 36 37 38 39 40 41 42 43 44 45 46 47 48 49 50
000
ASUS44 KMOB 250312
RWRMOB
REGIONAL WEATHER ROUNDUP
NATIONAL WEATHER SERVICE MOBILE AL
1000 PM CDT WED MAY 24 2017

NOTE: "FAIR" INDICATES FEW OR NO CLOUDS BELOW 12,000 FEET WITH NO
      SIGNIFICANT WEATHER AND/OR OBSTRUCTIONS TO VISIBILITY.

  * THESE STATIONS ARE PART OF THE UNIVERSITY OF SOUTH ALABAMA
    MESONET AND ARE NOT UNDER NWS OR FAA QUALITY CONTROL.

ALZ061>064-250400-
COASTAL ALABAMA

CITY           SKY/WX    TMP DP  RH WIND       PRES   REMARKS
MOBILE REG APT CLEAR     65  50  58 W5        29.72R
BROOKLEY FIELD CLEAR     69  51  52 W7        29.72R
USA CAMPUS*      N/A     64  54  68 CALM      29.72R
DOG RIVER*       N/A     66  54  63 NW5       30.38R


CITY           SKY/WX    TMP DP  RH WIND       PRES   REMARKS
GULF SHORES    CLEAR     68  52  57 NW7       29.70R

$$

ALZ051>060-250400-
INTERIOR SOUTHWEST AND SOUTH CENTRAL ALABAMA

CITY           SKY/WX    TMP DP  RH WIND       PRES   REMARKS
GREENVILLE     PTCLDY    62  55  77 W5        29.65R
EVERGREEN      PTCLDY    63  54  72 CALM      29.69R
ATMORE*          N/A     64  54  68 W7        29.72R
ANDALUSIA/OPP  PTCLDY    67  54  63 SW3       29.67R
ANDALUSIA*       N/A     63  55  77 W5        29.68R
FLORALA APT    CLEAR     64  52  64 CALM      29.69R
FLORALA*         N/A     63  54  72 CALM      30.28R

$$

FLZ001>006-250400-
WESTERN FLORIDA PANHANDLE

CITY           SKY/WX    TMP DP  RH WIND       PRES   REMARKS
PENSACOLA      CLEAR     70  52  52 W9        29.69R
NAS PENSACOLA  PTCLDY    69  50  50 NW5       29.69R
MILTON         PTCLDY    65  53  65 W9        29.69R
WHTNG S FIELD  PTCLDY    67  55  65 VRB6      29.69R


CITY           SKY/WX    TMP DP  RH WIND       PRES   REMARKS
JAY*             N/A     64  54  68 W7        29.71R
DUKE FIELD     PTCLDY    67  51  57 W5        29.68R
CRESTVIEW      CLEAR     66  52  60 W5        29.69R
VALPARAISO     PTCLDY    67  52  59 W6        29.68R
DESTIN         PTCLDY    74  55  51 CALM      29.68R

$$

MSZ076-079-250400-
INTERIOR SOUTHEAST MISSISSIPPI

CITY           SKY/WX    TMP DP  RH WIND       PRES   REMARKS
LEAKESVILLE*   NOT AVBL
AGRICOLA*        N/A     63  52  67 CALM      29.71R

$$

MARINE OBSERVATIONS

STATION/POSITION TIME  TEMP    WIND        PRES    WAVE
                       AIR SEA DIR/SP/G            HT/PER
                 (UTC) (F)     (DEG/KT/KT) (MB)    (FT/S)
PASCAGOULA       0248   68     320/  6/  7 1006.1R
PETIT BOIS ISLND 0248   72     320/ 16/ 21 1006.9R
GRAND BAY        0145   68     300/  6     1006.0R
KATRINA CUT      0230   73     310/ 19     1005.4R
CEDAR POINT      0230   71     320/ 12     1005.4R
E DAUPHIN ISLAND 0200   74     300/ 17/ 20 1005.1R
MIDDLE BAY LIGHT 0230   71     300/ 17     1005.4R
USCG MOBILE BAY  0248   69 78  290/  5/ 10 1006.5R
STATE DOCKS      0248   68 78              1005.8R
MEAHER PARK      0230   70     290/  9     1005.4R
FORT MORGAN      0248   72     320/ 19/ 22   N/A
12 S ORANGE BCH  0250   74 78  320/ 19/ 23 1004.9R   4/ 5
PENSACOLA BAY    0248   71 80              1005.6R
64 S DAUPHIN ISL 0250   75 78  270/ 17/ 23 1007.0R   4/ 5
67 S FORT MORGAN 0230   73     270/  8     1006.4R

$$

SELECTED LOCATIONS ACROSS THE REGION

CITY           SKY/WX    TMP DP  RH WIND       PRES   REMARKS
NEW ORLEANS    PTCLDY    66  56  70 W7        29.75R
GULFPORT       CLEAR     65  53  65 W3        29.72R
PASCAGOULA AP  CLEAR     63  55  75 CALM      29.72R
PASCAGOULA*    NOT AVBL
HATTIESBURG    CLEAR     60  52  74 W3        29.72R
LAUREL         NOT AVBL
MERIDIAN       PTCLDY    61  53  75 N12       29.71R
JACKSON        CLEAR     61  50  67 W3        29.71R
MONTGOMERY     CLOUDY    65  52  62 NW18G24   29.66R
TROY           PTCLDY    65  55  70 W9        29.66R
ASHFORD*         N/A     63  55  77 W5        29.68R
DOTHAN         CLEAR     68  54  60 W9        29.69R
PANAMA CITY    CLEAR     67  53  61 W6        29.67R

$$




USA.gov is the U.S. government's official web portal to all federal, state and local government web resources and services.